Year,Month,Day,Hour,Minute,Value (Times are PST for temperature in C)
2017,05,20,00,00,13.20
2017,05,20,00,01,13.20
2017,05,20,00,02,13.20
2017,05,20,00,03,13.20
2017,05,20,00,04,13.20
2017,05,20,00,05,13.20
2017,05,20,00,06,13.20
2017,05,20,00,07,13.20
2017,05,20,00,08,13.20
2017,05,20,00,09,13.20
2017,05,20,00,10,13.20
2017,05,20,00,11,13.20
2017,05,20,00,12,13.20
2017,05,20,00,13,13.20
2017,05,20,00,14,13.20
2017,05,20,00,15,13.20
2017,05,20,00,16,13.20
2017,05,20,00,17,13.10
2017,05,20,00,18,13.10
2017,05,20,00,19,13.10
2017,05,20,00,20,13.10
2017,05,20,00,21,13.10
2017,05,20,00,22,13.10
2017,05,20,00,23,13.10
2017,05,20,00,24,13.10
2017,05,20,00,25,13.10
2017,05,20,00,26,13.10
2017,05,20,00,27,13.10
2017,05,20,00,28,13.10
2017,05,20,00,29,13.10
2017,05,20,00,30,13.10
2017,05,20,00,31,13.10
2017,05,20,00,32,13.10
2017,05,20,00,33,13.10
2017,05,20,00,34,13.10
2017,05,20,00,35,13.00
2017,05,20,00,36,13.00
2017,05,20,00,37,13.00
2017,05,20,00,38,13.00
2017,05,20,00,39,13.00
2017,05,20,00,40,13.00
2017,05,20,00,41,13.00
2017,05,20,00,42,12.90
2017,05,20,00,43,12.90
2017,05,20,00,44,12.90
2017,05,20,00,45,12.90
2017,05,20,00,46,12.90
2017,05,20,00,47,12.90
2017,05,20,00,48,12.90
2017,05,20,00,49,12.90
2017,05,20,00,50,12.90
2017,05,20,00,51,12.90
2017,05,20,00,52,12.90
2017,05,20,00,53,12.90
2017,05,20,00,54,12.90
2017,05,20,00,55,12.90
2017,05,20,00,56,12.90
2017,05,20,00,57,12.90
2017,05,20,00,58,12.90
2017,05,20,00,59,12.90
2017,05,20,01,00,12.90
2017,05,20,01,01,12.90
2017,05,20,01,02,12.90
2017,05,20,01,03,12.90
2017,05,20,01,04,12.90
2017,05,20,01,05,12.90
2017,05,20,01,06,12.80
2017,05,20,01,07,12.80
2017,05,20,01,08,12.80
2017,05,20,01,09,12.80
2017,05,20,01,10,12.80
2017,05,20,01,11,12.80
2017,05,20,01,12,12.80
2017,05,20,01,13,12.80
2017,05,20,01,14,12.80
2017,05,20,01,15,12.80
2017,05,20,01,16,12.80
2017,05,20,01,17,12.80
2017,05,20,01,18,12.80
2017,05,20,01,19,12.70
2017,05,20,01,20,12.70
2017,05,20,01,21,12.70
2017,05,20,01,22,12.70
2017,05,20,01,23,12.70
2017,05,20,01,24,12.70
2017,05,20,01,25,12.70
2017,05,20,01,26,12.70
2017,05,20,01,27,12.70
2017,05,20,01,28,12.70
2017,05,20,01,29,12.70
2017,05,20,01,30,12.70
2017,05,20,01,31,12.70
2017,05,20,01,32,12.70
2017,05,20,01,33,12.70
2017,05,20,01,34,12.70
2017,05,20,01,35,12.70
2017,05,20,01,36,12.70
2017,05,20,01,37,12.70
2017,05,20,01,38,12.70
2017,05,20,01,39,12.70
2017,05,20,01,40,12.70
2017,05,20,01,41,12.70
2017,05,20,01,42,12.70
2017,05,20,01,43,12.70
2017,05,20,01,44,12.70
2017,05,20,01,45,12.70
2017,05,20,01,46,12.70
2017,05,20,01,47,12.60
2017,05,20,01,48,12.60
2017,05,20,01,49,12.60
2017,05,20,01,50,12.60
2017,05,20,01,51,12.60
2017,05,20,01,52,12.60
2017,05,20,01,53,12.60
2017,05,20,01,54,12.60
2017,05,20,01,55,12.60
2017,05,20,01,56,12.60
2017,05,20,01,57,12.60
2017,05,20,01,58,12.60
2017,05,20,01,59,12.60
2017,05,20,02,00,12.60
2017,05,20,02,01,12.60
2017,05,20,02,02,12.60
2017,05,20,02,03,12.60
2017,05,20,02,04,12.60
2017,05,20,02,05,12.60
2017,05,20,02,06,12.50
2017,05,20,02,07,12.50
2017,05,20,02,08,12.50
2017,05,20,02,09,12.50
2017,05,20,02,10,12.50
2017,05,20,02,11,12.40
2017,05,20,02,12,12.40
2017,05,20,02,13,12.40
2017,05,20,02,14,12.40
2017,05,20,02,15,12.40
2017,05,20,02,16,12.40
2017,05,20,02,17,12.40
2017,05,20,02,18,12.40
2017,05,20,02,19,12.30
2017,05,20,02,20,12.30
2017,05,20,02,21,12.30
2017,05,20,02,22,12.30
2017,05,20,02,23,12.30
2017,05,20,02,24,12.30
2017,05,20,02,25,12.20
2017,05,20,02,26,12.20
2017,05,20,02,27,12.20
2017,05,20,02,28,12.20
2017,05,20,02,29,12.20
2017,05,20,02,30,12.10
2017,05,20,02,31,12.10
2017,05,20,02,32,12.10
2017,05,20,02,33,12.10
2017,05,20,02,34,12.10
2017,05,20,02,35,12.00
2017,05,20,02,36,12.00
2017,05,20,02,37,12.00
2017,05,20,02,38,11.90
2017,05,20,02,39,11.90
2017,05,20,02,40,11.90
2017,05,20,02,41,11.90
2017,05,20,02,42,11.90
2017,05,20,02,43,11.90
2017,05,20,02,44,11.80
2017,05,20,02,45,11.80
2017,05,20,02,46,11.80
2017,05,20,02,47,11.80
2017,05,20,02,48,11.80
2017,05,20,02,49,11.80
2017,05,20,02,50,11.80
2017,05,20,02,51,11.80
2017,05,20,02,52,11.70
2017,05,20,02,53,11.70
2017,05,20,02,54,11.70
2017,05,20,02,55,11.70
2017,05,20,02,56,11.70
2017,05,20,02,57,11.70
2017,05,20,02,58,11.70
2017,05,20,02,59,11.70
2017,05,20,03,00,11.70
2017,05,20,03,01,11.70
2017,05,20,03,02,11.60
2017,05,20,03,03,11.60
2017,05,20,03,04,11.60
2017,05,20,03,05,11.60
2017,05,20,03,06,11.60
2017,05,20,03,07,11.60
2017,05,20,03,08,11.60
2017,05,20,03,09,11.50
2017,05,20,03,10,11.50
2017,05,20,03,11,11.50
2017,05,20,03,12,11.50
2017,05,20,03,13,11.50
2017,05,20,03,14,11.40
2017,05,20,03,15,11.40
2017,05,20,03,16,11.40
2017,05,20,03,17,11.40
2017,05,20,03,18,11.40
2017,05,20,03,19,11.40
2017,05,20,03,20,11.40
2017,05,20,03,21,11.40
2017,05,20,03,22,11.40
2017,05,20,03,23,11.40
2017,05,20,03,24,11.40
2017,05,20,03,25,11.40
2017,05,20,03,26,11.40
2017,05,20,03,27,11.40
2017,05,20,03,28,11.40
2017,05,20,03,29,11.30
2017,05,20,03,30,11.30
2017,05,20,03,31,11.30
2017,05,20,03,32,11.30
2017,05,20,03,33,11.30
2017,05,20,03,34,11.30
2017,05,20,03,35,11.30
2017,05,20,03,36,11.30
2017,05,20,03,37,11.30
2017,05,20,03,38,11.30
2017,05,20,03,39,11.30
2017,05,20,03,40,11.30
2017,05,20,03,41,11.30
2017,05,20,03,42,11.30
2017,05,20,03,43,11.30
2017,05,20,03,44,11.30
2017,05,20,03,45,11.30
2017,05,20,03,46,11.30
2017,05,20,03,47,11.30
2017,05,20,03,48,11.30
2017,05,20,03,49,11.20
2017,05,20,03,50,11.20
2017,05,20,03,51,11.20
2017,05,20,03,52,11.30
2017,05,20,03,53,11.30
2017,05,20,03,54,11.30
2017,05,20,03,55,11.30
2017,05,20,03,56,11.30
2017,05,20,03,57,11.30
2017,05,20,03,58,11.30
2017,05,20,03,59,11.30
2017,05,20,04,00,11.30
2017,05,20,04,01,11.30
2017,05,20,04,02,11.30
2017,05,20,04,03,11.30
2017,05,20,04,04,11.30
2017,05,20,04,05,11.30
2017,05,20,04,06,11.30
2017,05,20,04,07,11.30
2017,05,20,04,08,11.30
2017,05,20,04,09,11.30
2017,05,20,04,10,11.20
2017,05,20,04,11,11.20
2017,05,20,04,12,11.20
2017,05,20,04,13,11.20
2017,05,20,04,14,11.20
2017,05,20,04,15,11.20
2017,05,20,04,16,11.20
2017,05,20,04,17,11.20
2017,05,20,04,18,11.20
2017,05,20,04,19,11.20
2017,05,20,04,20,11.20
2017,05,20,04,21,11.20
2017,05,20,04,22,11.20
2017,05,20,04,23,11.20
2017,05,20,04,24,11.20
2017,05,20,04,25,11.20
2017,05,20,04,26,11.20
2017,05,20,04,27,11.20
2017,05,20,04,28,11.20
2017,05,20,04,29,11.20
2017,05,20,04,30,11.20
2017,05,20,04,31,11.20
2017,05,20,04,32,11.20
2017,05,20,04,33,11.20
2017,05,20,04,34,11.10
2017,05,20,04,35,11.10
2017,05,20,04,36,11.10
2017,05,20,04,37,11.10
2017,05,20,04,38,11.10
2017,05,20,04,39,11.10
2017,05,20,04,40,11.10
2017,05,20,04,41,11.10
2017,05,20,04,42,11.10
2017,05,20,04,43,11.00
2017,05,20,04,44,11.00
2017,05,20,04,45,11.00
2017,05,20,04,46,10.90
2017,05,20,04,47,10.90
2017,05,20,04,48,10.90
2017,05,20,04,49,10.90
2017,05,20,04,50,10.90
2017,05,20,04,51,10.90
2017,05,20,04,52,10.90
2017,05,20,04,53,10.90
2017,05,20,04,54,10.90
2017,05,20,04,55,10.80
2017,05,20,04,56,10.80
2017,05,20,04,57,10.80
2017,05,20,04,58,10.80
2017,05,20,04,59,10.80
2017,05,20,05,00,10.80
2017,05,20,05,01,10.80
2017,05,20,05,02,10.80
2017,05,20,05,03,10.80
2017,05,20,05,04,10.80
2017,05,20,05,05,10.80
2017,05,20,05,06,10.80
2017,05,20,05,07,10.80
2017,05,20,05,08,10.80
2017,05,20,05,09,10.80
2017,05,20,05,10,10.70
2017,05,20,05,11,10.70
2017,05,20,05,12,10.70
2017,05,20,05,13,10.70
2017,05,20,05,14,10.70
2017,05,20,05,15,10.70
2017,05,20,05,16,10.70
2017,05,20,05,17,10.70
2017,05,20,05,18,10.70
2017,05,20,05,19,10.70
2017,05,20,05,20,10.70
2017,05,20,05,21,10.70
2017,05,20,05,22,10.70
2017,05,20,05,23,10.70
2017,05,20,05,24,10.70
2017,05,20,05,25,10.70
2017,05,20,05,26,10.60
2017,05,20,05,27,10.60
2017,05,20,05,28,10.60
2017,05,20,05,29,10.60
2017,05,20,05,30,10.60
2017,05,20,05,31,10.60
2017,05,20,05,32,10.60
2017,05,20,05,33,10.60
2017,05,20,05,34,10.60
2017,05,20,05,35,10.60
2017,05,20,05,36,10.60
2017,05,20,05,37,10.60
2017,05,20,05,38,10.60
2017,05,20,05,39,10.60
2017,05,20,05,40,10.60
2017,05,20,05,41,10.60
2017,05,20,05,42,10.60
2017,05,20,05,43,10.60
2017,05,20,05,44,10.60
2017,05,20,05,45,10.60
2017,05,20,05,46,10.50
2017,05,20,05,47,10.50
2017,05,20,05,48,10.50
2017,05,20,05,49,10.50
2017,05,20,05,50,10.50
2017,05,20,05,51,10.40
2017,05,20,05,52,10.40
2017,05,20,05,53,10.40
2017,05,20,05,54,10.40
2017,05,20,05,55,10.40
2017,05,20,05,56,10.40
2017,05,20,05,57,10.40
2017,05,20,05,58,10.40
2017,05,20,05,59,10.30
2017,05,20,06,00,10.30
2017,05,20,06,01,10.30
2017,05,20,06,02,10.30
2017,05,20,06,03,10.30
2017,05,20,06,04,10.30
2017,05,20,06,05,10.30
2017,05,20,06,06,10.30
2017,05,20,06,07,10.30
2017,05,20,06,08,10.30
2017,05,20,06,09,10.30
2017,05,20,06,10,10.30
2017,05,20,06,11,10.30
2017,05,20,06,12,10.30
2017,05,20,06,13,10.30
2017,05,20,06,14,10.30
2017,05,20,06,15,10.30
2017,05,20,06,16,10.20
2017,05,20,06,17,10.20
2017,05,20,06,18,10.20
2017,05,20,06,19,10.20
2017,05,20,06,20,10.20
2017,05,20,06,21,10.20
2017,05,20,06,22,10.20
2017,05,20,06,23,10.20
2017,05,20,06,24,10.20
2017,05,20,06,25,10.20
2017,05,20,06,26,10.20
2017,05,20,06,27,10.20
2017,05,20,06,28,10.20
2017,05,20,06,29,10.10
2017,05,20,06,30,10.10
2017,05,20,06,31,10.10
2017,05,20,06,32,10.10
2017,05,20,06,33,10.10
2017,05,20,06,34,10.10
2017,05,20,06,35,10.10
2017,05,20,06,36,10.10
2017,05,20,06,37,10.10
2017,05,20,06,38,10.10
2017,05,20,06,39,10.10
2017,05,20,06,40,10.10
2017,05,20,06,41,10.10
2017,05,20,06,42,10.10
2017,05,20,06,43,10.10
2017,05,20,06,44,10.10
2017,05,20,06,45,10.10
2017,05,20,06,46,10.10
2017,05,20,06,47,10.10
2017,05,20,06,48,10.10
2017,05,20,06,49,10.10
2017,05,20,06,50,10.10
2017,05,20,06,51,10.10
2017,05,20,06,52,10.10
2017,05,20,06,53,10.10
2017,05,20,06,54,10.10
2017,05,20,06,55,10.10
2017,05,20,06,56,10.10
2017,05,20,06,57,10.10
2017,05,20,06,58,10.10
2017,05,20,06,59,10.10
2017,05,20,07,00,10.10
2017,05,20,07,01,10.10
2017,05,20,07,02,10.10
2017,05,20,07,03,10.10
2017,05,20,07,04,10.10
2017,05,20,07,05,10.10
2017,05,20,07,06,10.10
2017,05,20,07,07,10.10
2017,05,20,07,08,10.10
2017,05,20,07,09,10.10
2017,05,20,07,10,10.10
2017,05,20,07,11,10.10
2017,05,20,07,12,10.10
2017,05,20,07,13,10.10
2017,05,20,07,14,10.10
2017,05,20,07,15,10.10
2017,05,20,07,16,10.10
2017,05,20,07,17,10.10
2017,05,20,07,18,10.10
2017,05,20,07,19,10.10
2017,05,20,07,20,10.10
2017,05,20,07,21,10.10
2017,05,20,07,22,10.10
2017,05,20,07,23,10.10
2017,05,20,07,24,10.10
2017,05,20,07,25,10.10
2017,05,20,07,26,10.10
2017,05,20,07,27,10.10
2017,05,20,07,28,10.10
2017,05,20,07,29,10.10
2017,05,20,07,30,10.10
2017,05,20,07,31,10.10
2017,05,20,07,32,10.10
2017,05,20,07,33,10.20
2017,05,20,07,34,10.20
2017,05,20,07,35,10.20
2017,05,20,07,36,10.20
2017,05,20,07,37,10.20
2017,05,20,07,38,10.20
2017,05,20,07,39,10.20
2017,05,20,07,40,10.30
2017,05,20,07,41,10.30
2017,05,20,07,42,10.30
2017,05,20,07,43,10.30
2017,05,20,07,44,10.30
2017,05,20,07,45,10.30
2017,05,20,07,46,10.30
2017,05,20,07,47,10.40
2017,05,20,07,48,10.40
2017,05,20,07,49,10.40
2017,05,20,07,50,10.40
2017,05,20,07,51,10.40
2017,05,20,07,52,10.50
2017,05,20,07,53,10.50
2017,05,20,07,54,10.50
2017,05,20,07,55,10.50
2017,05,20,07,56,10.60
2017,05,20,07,57,10.60
2017,05,20,07,58,10.60
2017,05,20,07,59,10.60
2017,05,20,08,00,10.70
2017,05,20,08,01,10.70
2017,05,20,08,02,10.70
2017,05,20,08,03,10.70
2017,05,20,08,04,10.70
2017,05,20,08,05,10.80
2017,05,20,08,06,10.80
2017,05,20,08,07,10.80
2017,05,20,08,08,10.80
2017,05,20,08,09,10.80
2017,05,20,08,10,10.80
2017,05,20,08,11,10.80
2017,05,20,08,12,10.80
2017,05,20,08,13,10.90
2017,05,20,08,14,10.90
2017,05,20,08,15,10.90
2017,05,20,08,16,10.90
2017,05,20,08,17,10.90
2017,05,20,08,18,10.90
2017,05,20,08,19,11.00
2017,05,20,08,20,11.00
2017,05,20,08,21,11.00
2017,05,20,08,22,11.00
2017,05,20,08,23,11.00
2017,05,20,08,24,11.00
2017,05,20,08,25,11.10
2017,05,20,08,26,11.10
2017,05,20,08,27,11.10
2017,05,20,08,28,11.10
2017,05,20,08,29,11.10
2017,05,20,08,30,11.20
2017,05,20,08,31,11.20
2017,05,20,08,32,11.20
2017,05,20,08,33,11.20
2017,05,20,08,34,11.20
2017,05,20,08,35,11.20
2017,05,20,08,36,11.30
2017,05,20,08,37,11.30
2017,05,20,08,38,11.30
2017,05,20,08,39,11.30
2017,05,20,08,40,11.30
2017,05,20,08,41,11.40
2017,05,20,08,42,11.40
2017,05,20,08,43,11.40
2017,05,20,08,44,11.40
2017,05,20,08,45,11.40
2017,05,20,08,46,11.40
2017,05,20,08,47,11.50
2017,05,20,08,48,11.50
2017,05,20,08,49,11.60
2017,05,20,08,50,11.60
2017,05,20,08,51,11.60
2017,05,20,08,52,11.70
2017,05,20,08,53,11.70
2017,05,20,08,54,11.70
2017,05,20,08,55,11.80
2017,05,20,08,56,11.80
2017,05,20,08,57,11.80
2017,05,20,08,58,11.90
2017,05,20,08,59,11.90
2017,05,20,09,00,12.00
2017,05,20,09,01,12.00
2017,05,20,09,02,12.10
2017,05,20,09,03,12.10
2017,05,20,09,04,12.10
2017,05,20,09,05,12.20
2017,05,20,09,06,12.20
2017,05,20,09,07,12.20
2017,05,20,09,08,12.30
2017,05,20,09,09,12.30
2017,05,20,09,10,12.40
2017,05,20,09,11,12.40
2017,05,20,09,12,12.50
2017,05,20,09,13,12.60
2017,05,20,09,14,12.60
2017,05,20,09,15,12.70
2017,05,20,09,16,12.70
2017,05,20,09,17,12.80
2017,05,20,09,18,12.80
2017,05,20,09,19,12.90
2017,05,20,09,20,12.90
2017,05,20,09,21,13.00
2017,05,20,09,22,13.10
2017,05,20,09,23,13.20
2017,05,20,09,24,13.20
2017,05,20,09,25,13.30
2017,05,20,09,26,13.40
2017,05,20,09,27,13.50
2017,05,20,09,28,13.60
2017,05,20,09,29,13.70
2017,05,20,09,30,13.70
2017,05,20,09,31,13.80
2017,05,20,09,32,13.90
2017,05,20,09,33,13.90
2017,05,20,09,34,14.00
2017,05,20,09,35,14.10
2017,05,20,09,36,14.10
2017,05,20,09,37,14.20
2017,05,20,09,38,14.30
2017,05,20,09,39,14.40
2017,05,20,09,40,14.60
2017,05,20,09,41,14.70
2017,05,20,09,42,14.80
2017,05,20,09,43,14.90
2017,05,20,09,44,15.00
2017,05,20,09,45,15.00
2017,05,20,09,46,15.00
2017,05,20,09,47,15.20
2017,05,20,09,48,15.30
2017,05,20,09,49,15.30
2017,05,20,09,50,15.40
2017,05,20,09,51,15.50
2017,05,20,09,52,15.50
2017,05,20,09,53,15.60
2017,05,20,09,54,15.60
2017,05,20,09,55,15.70
2017,05,20,09,56,15.70
2017,05,20,09,57,15.80
2017,05,20,09,58,15.80
2017,05,20,09,59,15.80
2017,05,20,10,00,15.80
2017,05,20,10,01,15.80
2017,05,20,10,02,15.90
2017,05,20,10,03,15.90
2017,05,20,10,04,15.90
2017,05,20,10,05,15.90
2017,05,20,10,06,15.90
2017,05,20,10,07,15.90
2017,05,20,10,08,15.90
2017,05,20,10,09,15.90
2017,05,20,10,10,16.00
2017,05,20,10,11,16.00
2017,05,20,10,12,16.00
2017,05,20,10,13,16.00
2017,05,20,10,14,16.10
2017,05,20,10,15,16.10
2017,05,20,10,16,16.10
2017,05,20,10,17,16.10
2017,05,20,10,18,16.10
2017,05,20,10,19,16.10
2017,05,20,10,20,16.20
2017,05,20,10,21,16.20
2017,05,20,10,22,16.30
2017,05,20,10,23,16.30
2017,05,20,10,24,16.30
2017,05,20,10,25,16.30
2017,05,20,10,26,16.30
2017,05,20,10,27,16.30
2017,05,20,10,28,16.40
2017,05,20,10,29,16.40
2017,05,20,10,30,16.40
2017,05,20,10,31,16.50
2017,05,20,10,32,16.50
2017,05,20,10,33,16.60
2017,05,20,10,34,16.60
2017,05,20,10,35,16.70
2017,05,20,10,36,16.70
2017,05,20,10,37,16.80
2017,05,20,10,38,16.80
2017,05,20,10,39,16.90
2017,05,20,10,40,16.90
2017,05,20,10,41,17.00
2017,05,20,10,42,17.10
2017,05,20,10,43,17.10
2017,05,20,10,44,17.20
2017,05,20,10,45,17.20
2017,05,20,10,46,17.20
2017,05,20,10,47,17.30
2017,05,20,10,48,17.30
2017,05,20,10,49,17.30
2017,05,20,10,50,17.40
2017,05,20,10,51,17.40
2017,05,20,10,52,17.50
2017,05,20,10,53,17.50
2017,05,20,10,54,17.60
2017,05,20,10,55,17.60
2017,05,20,10,56,17.70
2017,05,20,10,57,17.70
2017,05,20,10,58,17.70
2017,05,20,10,59,17.80
2017,05,20,11,00,17.80
2017,05,20,11,01,17.80
2017,05,20,11,02,17.80
2017,05,20,11,03,17.80
2017,05,20,11,04,17.80
2017,05,20,11,05,17.80
2017,05,20,11,06,17.80
2017,05,20,11,07,17.80
2017,05,20,11,08,17.80
2017,05,20,11,09,17.80
2017,05,20,11,10,17.90
2017,05,20,11,11,17.90
2017,05,20,11,12,17.90
2017,05,20,11,13,18.00
2017,05,20,11,14,18.00
2017,05,20,11,15,18.10
2017,05,20,11,16,18.10
2017,05,20,11,17,18.20
2017,05,20,11,18,18.20
2017,05,20,11,19,18.30
2017,05,20,11,20,18.30
2017,05,20,11,21,18.40
2017,05,20,11,22,18.40
2017,05,20,11,23,18.40
2017,05,20,11,24,18.50
2017,05,20,11,25,18.50
2017,05,20,11,26,18.50
2017,05,20,11,27,18.60
2017,05,20,11,28,18.60
2017,05,20,11,29,18.70
2017,05,20,11,30,18.70
2017,05,20,11,31,18.80
2017,05,20,11,32,18.80
2017,05,20,11,33,18.90
2017,05,20,11,34,18.90
2017,05,20,11,35,19.00
2017,05,20,11,36,19.00
2017,05,20,11,37,19.10
2017,05,20,11,38,19.20
2017,05,20,11,39,19.30
2017,05,20,11,40,19.30
2017,05,20,11,41,19.40
2017,05,20,11,42,19.50
2017,05,20,11,43,19.60
2017,05,20,11,44,19.60
2017,05,20,11,45,19.70
2017,05,20,11,46,19.70
2017,05,20,11,47,19.80
2017,05,20,11,48,19.80
2017,05,20,11,49,19.90
2017,05,20,11,50,19.90
2017,05,20,11,51,20.00
2017,05,20,11,52,20.00
2017,05,20,11,53,20.00
2017,05,20,11,54,20.10
2017,05,20,11,55,20.10
2017,05,20,11,56,20.10
2017,05,20,11,57,20.10
2017,05,20,11,58,20.20
2017,05,20,11,59,20.20
2017,05,20,12,00,20.20
2017,05,20,12,01,20.20
2017,05,20,12,02,20.30
2017,05,20,12,03,20.30
2017,05,20,12,04,20.30
2017,05,20,12,05,20.30
2017,05,20,12,06,20.30
2017,05,20,12,07,20.30
2017,05,20,12,08,20.30
2017,05,20,12,09,20.30
2017,05,20,12,10,20.30
2017,05,20,12,11,20.30
2017,05,20,12,12,20.20
2017,05,20,12,13,20.20
2017,05,20,12,14,20.20
2017,05,20,12,15,20.30
2017,05,20,12,16,20.30
2017,05,20,12,17,20.30
2017,05,20,12,18,20.40
2017,05,20,12,19,20.40
2017,05,20,12,20,20.40
2017,05,20,12,21,20.50
2017,05,20,12,22,20.50
2017,05,20,12,23,20.40
2017,05,20,12,24,20.40
2017,05,20,12,25,20.30
2017,05,20,12,26,20.30
2017,05,20,12,27,20.30
2017,05,20,12,28,20.40
2017,05,20,12,29,20.40
2017,05,20,12,30,20.50
2017,05,20,12,31,20.50
2017,05,20,12,32,20.60
2017,05,20,12,33,20.60
2017,05,20,12,34,20.60
2017,05,20,12,35,20.70
2017,05,20,12,36,20.70
2017,05,20,12,37,20.70
2017,05,20,12,38,20.70
2017,05,20,12,39,20.70
2017,05,20,12,40,20.70
2017,05,20,12,41,20.70
2017,05,20,12,42,20.70
2017,05,20,12,43,20.60
2017,05,20,12,44,20.60
2017,05,20,12,45,20.50
2017,05,20,12,46,20.40
2017,05,20,12,47,20.30
2017,05,20,12,48,20.30
2017,05,20,12,49,20.20
2017,05,20,12,50,20.10
2017,05,20,12,51,20.10
2017,05,20,12,52,20.10
2017,05,20,12,53,20.10
2017,05,20,12,54,20.00
2017,05,20,12,55,20.00
2017,05,20,12,56,20.00
2017,05,20,12,57,19.90
2017,05,20,12,58,19.90
2017,05,20,12,59,19.90
2017,05,20,13,00,19.90
2017,05,20,13,01,19.90
2017,05,20,13,02,19.90
2017,05,20,13,03,19.90
2017,05,20,13,04,20.00
2017,05,20,13,05,20.00
2017,05,20,13,06,20.00
2017,05,20,13,07,20.00
2017,05,20,13,08,20.00
2017,05,20,13,09,19.90
2017,05,20,13,10,19.90
2017,05,20,13,11,19.90
2017,05,20,13,12,19.90
2017,05,20,13,13,20.00
2017,05,20,13,14,20.00
2017,05,20,13,15,20.00
2017,05,20,13,16,20.00
2017,05,20,13,17,20.00
2017,05,20,13,18,19.90
2017,05,20,13,19,20.00
2017,05,20,13,20,20.00
2017,05,20,13,21,20.00
2017,05,20,13,22,19.90
2017,05,20,13,23,19.90
2017,05,20,13,24,20.00
2017,05,20,13,25,20.00
2017,05,20,13,26,20.10
2017,05,20,13,27,20.10
2017,05,20,13,28,20.20
2017,05,20,13,29,20.30
2017,05,20,13,30,20.40
2017,05,20,13,31,20.50
2017,05,20,13,32,20.50
2017,05,20,13,33,20.60
2017,05,20,13,34,20.60
2017,05,20,13,35,20.70
2017,05,20,13,36,20.70
2017,05,20,13,37,20.70
2017,05,20,13,38,20.80
2017,05,20,13,39,20.80
2017,05,20,13,40,20.80
2017,05,20,13,41,20.80
2017,05,20,13,42,20.80
2017,05,20,13,43,20.80
2017,05,20,13,44,20.80
2017,05,20,13,45,20.90
2017,05,20,13,46,20.90
2017,05,20,13,47,20.90
2017,05,20,13,48,21.00
2017,05,20,13,49,21.00
2017,05,20,13,50,21.00
2017,05,20,13,51,21.10
2017,05,20,13,52,21.10
2017,05,20,13,53,21.20
2017,05,20,13,54,21.30
2017,05,20,13,55,21.30
2017,05,20,13,56,21.30
2017,05,20,13,57,21.40
2017,05,20,13,58,21.40
2017,05,20,13,59,21.50
2017,05,20,14,00,21.60
2017,05,20,14,01,21.70
2017,05,20,14,02,21.80
2017,05,20,14,03,21.80
2017,05,20,14,04,21.90
2017,05,20,14,05,22.00
2017,05,20,14,06,22.10
2017,05,20,14,07,22.20
2017,05,20,14,08,22.30
2017,05,20,14,09,22.30
2017,05,20,14,10,22.40
2017,05,20,14,11,22.40
2017,05,20,14,12,22.50
2017,05,20,14,13,22.50
2017,05,20,14,14,22.60
2017,05,20,14,15,22.60
2017,05,20,14,16,22.60
2017,05,20,14,17,22.70
2017,05,20,14,18,22.70
2017,05,20,14,19,22.80
2017,05,20,14,20,22.80
2017,05,20,14,21,22.90
2017,05,20,14,22,23.00
2017,05,20,14,23,23.10
2017,05,20,14,24,23.10
2017,05,20,14,25,23.20
2017,05,20,14,26,23.20
2017,05,20,14,27,23.30
2017,05,20,14,28,23.20
2017,05,20,14,29,23.20
2017,05,20,14,30,23.20
2017,05,20,14,31,23.20
2017,05,20,14,32,23.20
2017,05,20,14,33,23.20
2017,05,20,14,34,23.30
2017,05,20,14,35,23.20
2017,05,20,14,36,23.10
2017,05,20,14,37,23.00
2017,05,20,14,38,22.90
2017,05,20,14,39,22.90
2017,05,20,14,40,22.90
2017,05,20,14,41,22.90
2017,05,20,14,42,22.90
2017,05,20,14,43,22.90
2017,05,20,14,44,23.00
2017,05,20,14,45,23.10
2017,05,20,14,46,23.10
2017,05,20,14,47,23.10
2017,05,20,14,48,23.20
2017,05,20,14,49,23.20
2017,05,20,14,50,23.20
2017,05,20,14,51,23.30
2017,05,20,14,52,23.30
2017,05,20,14,53,23.30
2017,05,20,14,54,23.20
2017,05,20,14,55,23.20
2017,05,20,14,56,23.20
2017,05,20,14,57,23.20
2017,05,20,14,58,23.20
2017,05,20,14,59,23.20
2017,05,20,15,00,23.20
2017,05,20,15,01,23.20
2017,05,20,15,02,23.30
2017,05,20,15,03,23.40
2017,05,20,15,04,23.40
2017,05,20,15,05,23.40
2017,05,20,15,06,23.40
2017,05,20,15,07,23.40
2017,05,20,15,08,23.40
2017,05,20,15,09,23.30
2017,05,20,15,10,23.30
2017,05,20,15,11,23.30
2017,05,20,15,12,23.30
2017,05,20,15,13,23.20
2017,05,20,15,14,23.20
2017,05,20,15,15,23.20
2017,05,20,15,16,23.20
2017,05,20,15,17,23.20
2017,05,20,15,18,23.20
2017,05,20,15,19,23.30
2017,05,20,15,20,23.30
2017,05,20,15,21,23.30
2017,05,20,15,22,23.40
2017,05,20,15,23,23.40
2017,05,20,15,24,23.50
2017,05,20,15,25,23.40
2017,05,20,15,26,23.40
2017,05,20,15,27,23.50
2017,05,20,15,28,23.50
2017,05,20,15,29,23.60
2017,05,20,15,30,23.60
2017,05,20,15,31,23.60
2017,05,20,15,32,23.60
2017,05,20,15,33,23.70
2017,05,20,15,34,23.70
2017,05,20,15,35,23.80
2017,05,20,15,36,23.90
2017,05,20,15,37,23.90
2017,05,20,15,38,23.90
2017,05,20,15,39,24.00
2017,05,20,15,40,24.10
2017,05,20,15,41,24.10
2017,05,20,15,42,24.10
2017,05,20,15,43,24.20
2017,05,20,15,44,24.20
2017,05,20,15,45,24.30
2017,05,20,15,46,24.30
2017,05,20,15,47,24.40
2017,05,20,15,48,24.40
2017,05,20,15,49,24.50
2017,05,20,15,50,24.50
2017,05,20,15,51,24.60
2017,05,20,15,52,24.50
2017,05,20,15,53,24.50
2017,05,20,15,54,24.40
2017,05,20,15,55,24.40
2017,05,20,15,56,24.40
2017,05,20,15,57,24.40
2017,05,20,15,58,24.30
2017,05,20,15,59,24.30
2017,05,20,16,00,24.30
2017,05,20,16,01,24.30
2017,05,20,16,02,24.30
2017,05,20,16,03,24.30
2017,05,20,16,04,24.40
2017,05,20,16,05,24.40
2017,05,20,16,06,24.50
2017,05,20,16,07,24.50
2017,05,20,16,08,24.60
2017,05,20,16,09,24.50
2017,05,20,16,10,24.40
2017,05,20,16,11,24.30
2017,05,20,16,12,24.20
2017,05,20,16,13,24.20
2017,05,20,16,14,24.20
2017,05,20,16,15,24.20
2017,05,20,16,16,24.20
2017,05,20,16,17,24.20
2017,05,20,16,18,24.20
2017,05,20,16,19,24.20
2017,05,20,16,20,24.20
2017,05,20,16,21,24.20
2017,05,20,16,22,24.10
2017,05,20,16,23,24.00
2017,05,20,16,24,24.00
2017,05,20,16,25,24.00
2017,05,20,16,26,24.00
2017,05,20,16,27,24.00
2017,05,20,16,28,24.00
2017,05,20,16,29,24.00
2017,05,20,16,30,24.00
2017,05,20,16,31,24.00
2017,05,20,16,32,24.00
2017,05,20,16,33,23.90
2017,05,20,16,34,23.90
2017,05,20,16,35,23.80
2017,05,20,16,36,23.80
2017,05,20,16,37,23.80
2017,05,20,16,38,23.70
2017,05,20,16,39,23.70
2017,05,20,16,40,23.70
2017,05,20,16,41,23.70
2017,05,20,16,42,23.70
2017,05,20,16,43,23.70
2017,05,20,16,44,23.70
2017,05,20,16,45,23.70
2017,05,20,16,46,23.60
2017,05,20,16,47,23.60
2017,05,20,16,48,23.60
2017,05,20,16,49,23.50
2017,05,20,16,50,23.40
2017,05,20,16,51,23.40
2017,05,20,16,52,23.40
2017,05,20,16,53,23.30
2017,05,20,16,54,23.30
2017,05,20,16,55,23.30
2017,05,20,16,56,23.30
2017,05,20,16,57,23.20
2017,05,20,16,58,23.30
2017,05,20,16,59,23.30
2017,05,20,17,00,23.30
2017,05,20,17,01,23.30
2017,05,20,17,02,23.40
2017,05,20,17,03,23.40
2017,05,20,17,04,23.40
2017,05,20,17,05,23.30
2017,05,20,17,06,23.20
2017,05,20,17,07,23.20
2017,05,20,17,08,23.10
2017,05,20,17,09,23.10
2017,05,20,17,10,23.20
2017,05,20,17,11,23.20
2017,05,20,17,12,23.20
2017,05,20,17,13,23.20
2017,05,20,17,14,23.20
2017,05,20,17,15,23.20
2017,05,20,17,16,23.20
2017,05,20,17,17,23.20
2017,05,20,17,18,23.20
2017,05,20,17,19,23.20